This is the latest recevied weather packets stored in our database for station/object CRYC. If no packets are shown the sender has not sent any weather packets the latest 10 day(s).
| Time | Temp. | Humidity | Pressure | Rain* | Wind** | Luminosity | Snow |
|---|---|---|---|---|---|---|---|
| 1777703418 | 11.67° C | - | - | 0 mm | 2.68 m/s, 257° | - | - |
| 1777702812 | 11.67° C | - | - | 0 mm | 2.24 m/s, 255° | - | - |
| 1777702208 | 11.67° C | - | - | 0 mm | 1.34 m/s, 264° | - | - |
| 1777701605 | 11.67° C | - | - | 0 mm | 1.34 m/s, 245° | - | - |
| 1777700998 | 11.67° C | - | - | 0 mm | 2.24 m/s, 246° | - | - |
| 1777699790 | 12.22° C | - | - | 0 mm | 2.24 m/s, 262° | - | - |
| 1777699185 | 12.22° C | - | - | 0 mm | 3.13 m/s, 257° | - | - |
| 1777698579 | 11.67° C | - | - | 0 mm | 2.24 m/s, 250° | - | - |
| 1777697974 | 11.67° C | - | - | 0 mm | 0.45 m/s, 191° | - | - |
| 1777697372 | 11.67° C | - | - | 0 mm | 0.89 m/s, 132° | - | - |
| 1777696767 | 11.67° C | - | - | 0 mm | 0.45 m/s, 232° | - | - |
| 1777695806 | 11.67° C | - | - | 0 mm | 0.89 m/s, 197° | - | - |
| 1777695561 | 11.67° C | - | - | 0 mm | 0.89 m/s, 197° | - | - |
| 1777694958 | 12.22° C | - | - | 0 mm | 0.89 m/s, 233° | - | - |
| 1777693748 | 12.22° C | - | - | 0 mm | 0 m/s | - | - |
| 1777693143 | 12.22° C | - | - | 0 mm | 0.89 m/s, 148° | - | - |
| 1777692534 | 12.22° C | - | - | 0 mm | 0.45 m/s, 173° | - | - |
| 1777691929 | 12.22° C | - | - | 0 mm | 0 m/s | - | - |
| 1777691325 | 11.67° C | - | - | 0 mm | 0.45 m/s, 215° | - | - |
| 1777690721 | 11.67° C | - | - | 0 mm | 0 m/s | - | - |
| 1777690117 | 11.67° C | - | - | 0 mm | 0.45 m/s, 270° | - | - |
| 1777689511 | 11.67° C | - | - | 0 mm | 0.89 m/s, 183° | - | - |
| 1777688907 | 11.67° C | - | - | 0 mm | 0.45 m/s, 172° | - | - |
| 1777688304 | 12.22° C | - | - | 0 mm | 0.89 m/s, 229° | - | - |
| 1777687701 | 12.22° C | - | - | 0 mm | 0.89 m/s, 186° | - | - |
* Rain latest hour (hover to see other rain measurements)
** Current wind speed in m/s (hover to see current wind gust speed)